Theta_e
307 307 307 307 307 307 307 307 307 307 307 307 308 308 308 309 311 310 308 315 307 302 304 305 306 303 305 309 304 309 309 310 311 308 306 306 306 308 309 314 309 311 309 307 310 306 304 321 318 312 325 327 324 325
306 306 306 306 307 307 307 307 307 307 307 308 308 308 308 309 311 310 306 312 312 305 305 309 308 310 308 308 306 308 309 316 314 311 311 311 307 309 312 303 315 308 312 313 314 310 320 324 324 326 326 328 325 325
306 306 306 306 307 307 307 307 307 307 307 308 308 308 308 308 310 310 306 309 309 305 306 306 305 311 312 310 311 303 312 313 316 316 313 314 311 315 308 310 313 317 319 315 313 314 315 321 321 323 323 323 322 323
306 306 306 306 306 306 306 307 307 307 307 307 308 308 308 308 310 311 306 309 308 305 300 304 308 306 311 309 310 310 311 312 312 312 311 311 310 316 311 312 309 315 315 312 316 314 320 320 320 321 322 323 323 324
306 306 306 305 306 306 306 306 306 306 307 307 308 308 308 308 310 310 309 310 310 304 301 303 309 308 309 310 308 310 309 310 308 305 306 307 312 312 313 312 309 315 315 312 309 317 319 318 319 320 319 318 321 323
306 306 305 305 305 305 306 306 306 306 307 307 307 307 307 308 310 307 304 310 312 310 302 300 309 309 309 309 307 309 310 309 306 306 306 308 313 310 305 304 311 315 319 319 315 317 317 318 319 320 317 317 318 318
306 306 306 306 306 305 306 306 306 306 307 307 307 307 307 308 308 302 300 306 307 307 303 300 301 307 308 309 308 307 308 307 306 305 304 305 306 307 303 299 308 310 314 314 314 315 312 312 311 315 316 317 318 318
306 306 306 306 306 306 306 306 306 306 307 307 307 307 307 308 307 304 308 308 307 304 305 299 300 303 308 304 304 309 306 306 305 305 307 304 306 305 299 306 307 309 311 310 310 311 311 313 314 314 315 315 314 314
305 305 306 306 306 306 306 305 305 306 306 307 306 307 307 306 303 304 308 309 308 305 300 300 297 298 308 306 308 307 308 301 307 301 302 304 302 299 304 307 307 309 310 309 311 312 313 312 313 315 315 315 314 315
305 306 306 306 306 306 306 305 305 305 306 306 304 302 298 305 310 309 306 304 302 303 302 298 304 299 303 303 301 304 305 302 300 304 305 300 300 307 307 309 312 313 313 313 311 311 313 313 313 313 314 315 316 316
306 306 306 305 305 306 306 306 305 306 306 302 300 300 309 307 305 303 298 298 299 297 300 300 302 300 306 300 302 304 301 302 296 301 302 300 302 309 314 315 316 316 315 314 314 313 313 313 312 312 312 313 314 317
305 305 306 306 306 306 307 306 305 305 305 305 305 310 308 303 300 295 295 298 297 295 300 299 300 304 305 307 303 304 299 300 294 305 301 297 310 314 315 314 315 315 315 314 314 313 313 313 313 312 312 312 313 318
305 305 305 306 306 306 306 306 306 306 307 308 302 299 300 299 288 289 288 293 294 300 301 303 300 303 305 304 302 302 296 296 304 298 297 305 312 312 313 314 314 316 315 315 313 313 313 313 314 313 314 317 317 319
305 306 306 306 307 307 307 306 306 305 302 297 293 287 293 291 293 294 295 297 301 303 302 304 301 302 304 301 302 296 301 302 296 294 297 304 308 310 312 313 313 313 314 313 313 314 314 314 315 315 316 319 319 319
304 305 306 306 306 306 307 307 306 309 302 296 296 287 292 296 299 300 303 302 303 305 303 302 303 303 300 299 301 299 296 293 296 298 303 306 310 311 312 313 313 314 315 314 315 315 315 314 316 315 318 323 320 323
305 304 305 306 306 307 306 305 306 307 303 297 296 294 297 296 297 298 299 300 304 304 305 304 299 297 297 298 295 294 294 294 299 304 307 309 310 312 312 314 315 315 315 315 317 318 318 318 317 318 321 321 322 323
304 303 306 306 307 306 306 305 305 300 298 295 295 299 301 301 298 299 301 302 306 302 298 302 295 294 300 295 294 298 299 301 304 306 309 312 312 312 313 313 314 313 313 315 316 317 315 318 317 318 319 320 322 322
304 306 307 306 306 304 307 306 302 297 293 296 296 300 300 301 300 300 302 304 303 302 304 300 302 296 294 293 296 301 303 307 309 309 310 313 316 316 313 313 313 313 314 316 316 316 317 315 316 316 320 321 321 321
305 306 306 306 307 306 301 301 303 295 296 298 299 301 301 301 305 306 305 306 307 308 307 303 298 297 298 304 302 304 305 307 307 309 309 314 316 317 317 316 315 316 314 313 313 312 312 313 313 316 316 321 316 316
306 305 305 305 306 304 297 301 305 299 297 301 301 300 300 300 302 303 305 305 304 301 300 298 298 301 302 304 307 307 308 311 311 307 308 310 312 317 316 314 311 317 312 315 312 306 312 312 313 314 313 313 314 314
303 305 305 305 305 307 304 302 300 300 303 300 304 303 302 302 300 299 299 303 300 298 297 301 303 306 309 309 310 311 315 315 313 313 312 311 312 312 312 313 314 312 310 310 309 309 304 310 311 313 313 312 313 314
305 306 306 305 301 301 299 304 301 301 299 299 300 303 301 299 298 301 306 301 299 301 303 303 304 307 308 311 313 315 316 315 317 315 306 308 310 308 311 311 312 310 310 310 311 310 310 311 312 311 310 311 310 312
305 304 301 299 294 291 293 301 296 297 292 294 299 296 297 298 299 304 298 300 300 303 305 306 308 311 310 314 316 314 317 318 316 317 312 313 312 312 312 312 312 311 310 309 310 308 309 305 309 311 311 310 310 310
304 298 292 291 291 288 293 292 295 293 294 293 292 288 291 295 297 292 288 294 301 311 312 312 313 310 311 313 314 314 316 314 313 313 314 312 311 311 313 312 312 312 312 311 310 309 309 309 305 309 310 310 309 309
293 292 289 285 289 288 290 291 291 289 287 290 287 289 291 295 292 293 294 302 307 308 310 311 313 313 310 309 311 313 318 313 310 309 313 312 310 309 309 310 311 311 312 312 310 310 310 310 309 309 308 308 308 308
290 300 295 298 292 296 297 296 293 297 300 297 299 304 302 299 297 294 301 307 309 309 310 311 310 309 309 312 309 310 310 312 311 309 311 312 311 309 308 308 308 309 313 312 310 309 309 309 309 309 309 308 302 306
298 303 310 314 311 308 306 308 308 304 301 300 302 301 300 295 295 301 308 310 309 310 312 312 311 309 309 310 312 314 314 314 314 312 314 313 312 313 311 308 308 307 310 311 311 310 309 309 309 309 309 309 309 310
308 306 302 305 305 306 302 302 301 301 302 304 303 299 297 297 298 306 310 313 313 314 313 313 314 313 312 312 313 312 312 312 313 312 311 311 311 311 310 307 307 298 306 307 306 306 306 305 306 306 307 307 308 310
306 308 307 304 305 304 304 302 302 304 307 305 301 300 302 307 310 310 312 313 314 312 310 309 311 313 312 313 313 312 311 310 307 303 302 302 303 304 306 305 306 305 305 305 300 300 304 303 304 304 305 305 307 309
305 309 305 304 303 301 305 307 306 308 309 309 309 308 308 310 313 315 313 313 312 310 310 311 311 310 308 308 307 308 309 309 307 304 301 300 300 303 304 304 303 303 303 303 303 303 299 301 301 304 304 305 305 305
310 308 305 305 304 307 309 310 310 310 309 308 309 307 306 309 311 314 313 313 312 312 310 309 309 309 307 306 305 304 303 306 307 307 304 303 302 302 301 302 302 302 302 302 302 301 301 300 300 300 301 302 301 300
308 307 306 302 304 310 312 309 309 308 308 306 307 309 309 309 306 310 314 313 311 309 306 309 307 306 307 307 307 306 298 305 305 305 303 301 300 301 301 301 302 302 302 301 301 300 299 298 297 298 300 299 299 298
309 309 309 309 307 306 309 309 308 307 308 306 306 308 307 307 305 310 315 315 312 311 311 310 308 308 308 307 306 305 301 305 301 293 293 292 292 295 299 302 302 302 300 300 299 299 298 297 296 297 298 297 296 297
Wind_Speed
19 20 19 18 18 17 17 16 15 15 14 13 14 15 15 16 16 10 10 5 5 7 11 9 15 12 14 10 9 13 7 8 9 11 12 12 13 12 16 15 9 16 4 9 13 14 17 12 10 10 9 8 7 11
19 18 19 16 17 17 16 15 14 14 14 14 13 14 14 14 15 12 10 9 7 8 11 12 12 9 9 9 8 10 10 7 7 7 3 7 12 11 4 10 13 9 10 9 4 3 21 12 16 16 7 8 8 6
20 19 19 18 16 16 15 14 13 13 14 13 12 12 14 13 13 10 9 9 10 9 11 13 7 5 4 4 6 6 6 9 6 8 7 6 4 6 4 7 12 7 7 1 5 7 6 11 15 13 10 5 3 4
18 17 16 15 14 14 13 13 12 12 11 10 11 10 12 13 12 12 7 9 7 7 7 7 5 3 5 6 5 7 8 10 10 8 8 7 6 6 7 6 3 13 6 6 11 11 12 13 10 7 7 8 9 9
19 16 15 15 14 13 13 12 12 12 11 10 10 9 10 12 12 10 8 8 4 6 7 8 9 8 3 2 3 4 5 7 6 6 5 6 5 7 5 5 7 7 4 1 10 10 9 11 7 12 10 10 9 11
17 17 16 15 15 14 12 12 11 11 10 8 10 7 9 11 11 7 4 5 5 7 6 5 6 8 6 4 2 5 5 5 5 4 4 5 5 6 7 4 7 10 16 14 10 10 10 9 9 10 8 10 10 9
14 15 17 16 15 14 12 11 11 10 9 8 10 7 8 10 8 3 3 4 8 7 5 5 3 6 3 4 5 5 4 4 4 3 3 4 2 2 4 9 13 14 11 8 9 9 9 11 9 10 10 11 12 12
11 12 14 13 13 13 13 12 10 10 8 7 8 7 9 12 13 7 5 12 7 6 5 5 3 5 6 6 6 2 4 4 4 4 1 2 5 3 3 3 7 11 12 9 7 8 7 11 12 13 13 12 12 11
11 11 13 13 12 13 11 7 7 7 6 6 5 6 6 5 2 1 2 4 5 5 6 5 8 5 5 5 4 4 3 4 5 4 4 3 4 4 4 4 2 4 5 7 9 10 11 10 9 10 12 12 13 12
12 13 12 13 10 8 9 8 5 3 6 5 5 4 4 1 6 6 4 4 6 6 5 5 8 3 4 4 5 1 2 4 4 7 4 5 6 8 6 5 2 9 10 11 9 8 10 11 10 12 13 12 13 13
7 10 10 11 11 10 10 9 7 5 7 5 3 3 1 3 4 1 2 5 5 3 5 6 6 4 2 6 4 3 3 3 3 3 2 3 6 12 14 16 12 11 9 10 11 12 13 13 13 13 14 15 16 15
7 8 7 11 11 10 11 13 10 9 1 1 2 5 4 3 2 4 2 4 5 6 5 4 4 3 3 3 4 2 2 2 4 3 1 3 10 15 12 11 10 10 12 13 13 15 16 16 15 15 16 16 17 15
7 8 8 10 11 9 13 11 12 4 8 2 2 3 1 2 1 5 5 4 4 1 4 2 5 2 3 3 2 2 3 5 2 2 3 7 8 10 11 11 13 14 15 16 16 16 19 21 18 17 15 15 17 14
7 11 9 10 9 10 10 13 11 3 3 3 4 2 4 4 5 5 3 1 5 8 5 0 5 5 4 3 4 4 3 1 4 5 5 7 11 10 10 11 13 15 16 17 18 18 18 20 18 16 16 15 16 13
11 8 11 11 12 9 12 13 7 3 3 2 3 2 6 6 4 3 1 3 4 6 6 1 2 3 5 3 3 4 4 4 5 5 8 9 11 12 12 11 11 12 12 13 14 16 15 15 18 14 16 9 9 5
16 10 5 11 11 12 13 8 4 2 2 2 3 5 5 4 4 3 5 2 8 5 3 4 1 3 1 2 1 3 5 1 5 7 8 8 12 13 12 9 10 9 8 10 11 12 10 12 12 12 5 5 10 9
1 4 11 13 14 12 9 3 4 5 2 4 3 5 2 2 2 3 5 3 4 4 2 0 3 2 3 3 3 3 6 7 6 7 5 6 10 9 8 6 6 7 8 8 8 10 10 9 10 13 11 8 5 5
11 12 15 14 11 8 3 4 3 3 3 5 3 3 6 5 2 6 5 4 5 3 3 2 4 3 3 3 3 4 5 5 5 5 6 7 8 7 5 6 8 4 5 7 5 4 5 3 0 1 4 3 3 1
10 11 12 5 6 3 3 4 1 2 4 2 5 5 1 3 2 1 2 3 3 1 2 4 3 4 2 3 3 3 5 5 6 8 7 9 8 7 8 7 9 6 6 6 9 1 3 6 5 2 2 2 2 1
11 8 3 4 8 3 2 1 3 4 3 2 4 3 2 2 2 2 1 0 1 1 1 2 4 5 5 5 5 5 5 6 5 7 8 7 5 6 8 7 4 5 5 7 8 7 3 3 3 1 0 2 1 4
8 5 3 4 3 3 3 3 3 3 2 2 2 3 2 2 2 3 5 5 5 2 3 4 3 2 5 4 5 6 6 6 6 6 8 9 7 6 6 7 5 5 4 3 7 7 6 6 4 2 3 3 4 5
2 6 2 2 3 4 3 3 3 3 3 3 4 1 3 1 2 3 5 3 3 5 4 5 6 5 5 5 4 4 6 8 10 5 9 10 6 9 7 7 8 7 5 6 6 6 9 6 5 7 7 2 5 5
2 3 2 2 2 1 3 4 2 3 2 2 2 1 3 3 4 6 3 3 4 4 7 8 8 9 9 10 6 9 10 8 4 6 7 8 8 9 6 8 6 8 6 7 7 7 7 7 3 4 6 7 8 10
3 2 2 2 3 2 1 1 1 2 2 1 2 1 1 1 2 1 3 3 5 4 3 1 2 2 4 6 6 7 5 5 7 7 8 7 7 6 8 8 7 7 3 2 5 6 7 8 8 8 9 8 9 9
4 7 6 4 4 4 4 3 1 0 2 4 4 4 4 4 1 2 5 3 2 1 3 6 6 7 7 5 3 3 6 6 5 6 2 5 8 9 9 9 9 9 9 5 4 5 7 7 8 9 10 10 11 12
6 7 8 11 5 7 8 6 9 7 6 10 8 7 7 7 5 3 4 7 7 6 8 7 4 4 4 3 1 1 3 5 4 5 4 6 5 4 6 7 7 7 8 8 10 12 14 13 13 15 12 13 11 8
3 2 4 3 1 7 5 4 6 4 5 5 5 5 5 5 6 4 4 6 5 4 2 1 3 3 4 3 1 1 3 4 1 4 7 9 11 8 9 10 11 10 12 14 13 14 15 15 15 15 15 14 13 11
2 3 13 10 9 8 15 13 13 12 10 8 11 15 7 5 4 3 1 4 5 6 6 4 4 4 5 6 7 8 9 10 9 11 10 9 9 9 12 11 12 13 12 13 14 14 14 14 14 14 15 14 14 15
11 10 9 15 14 10 12 13 13 11 11 13 13 11 11 7 5 5 4 3 7 8 7 7 8 8 8 9 9 10 9 9 12 13 15 11 10 10 11 11 11 12 12 13 14 12 15 14 15 14 16 14 13 13
8 8 10 11 11 10 9 8 9 8 8 9 10 10 9 9 7 6 6 5 7 7 8 8 8 9 10 10 10 11 9 10 9 10 11 11 11 12 11 12 12 13 12 13 13 15 15 16 16 14 13 11 11 12
6 5 5 4 4 5 5 5 5 4 6 6 8 10 7 8 8 7 7 8 9 9 9 9 10 10 11 11 10 11 10 10 11 11 10 10 10 11 12 12 12 12 11 13 14 13 14 14 14 15 16 17 18 17
8 10 9 6 7 4 4 3 5 3 9 4 3 8 5 4 7 4 6 7 7 7 4 8 10 11 11 10 10 11 11 11 11 11 13 10 10 12 11 11 11 10 12 14 13 14 15 16 15 16 11 13 15 15
5 5 6 1 2 3 3 4 3 4 6 6 1 7 7 6 6 4 4 8 10 10 9 9 10 10 12 14 14 11 12 11 10 4 7 6 2 4 7 9 9 10 14 12 13 14 14 17 16 17 17 14 14 14
Wind_Direction
273 274 273 273 271 275 277 279 278 284 286 290 299 310 321 328 335 331 303 294 311 306 294 324 337 336 331 338 328 360 272 211 275 235 241 245 255 238 240 235 209 274 272 257 247 250 247 338 92 149 76 92 35 28
275 273 272 272 271 269 274 273 279 279 282 284 285 301 315 324 330 337 287 344 330 278 291 314 292 296 290 303 322 326 310 5 7 294 319 278 259 275 250 270 309 211 168 167 313 13 329 58 93 100 85 71 48 33
272 272 274 269 268 263 269 272 274 276 280 283 278 293 307 317 323 329 297 299 308 266 255 231 229 179 299 290 309 290 44 354 357 337 311 302 313 329 346 22 305 61 7 178 140 155 140 313 64 49 51 50 18 33
267 267 268 268 270 264 263 263 267 279 286 284 284 286 300 308 315 317 293 310 300 302 271 131 123 187 351 277 270 266 304 315 294 285 296 295 302 29 311 102 49 253 100 337 272 56 233 80 71 48 45 31 20 10
258 256 257 259 261 264 253 253 260 268 266 271 290 278 296 304 314 300 269 271 302 304 327 320 297 129 129 328 261 209 279 311 302 286 263 281 307 343 329 297 227 6 116 9 72 50 62 60 29 59 29 10 13 8
263 252 249 249 250 254 252 246 252 264 259 270 288 273 293 303 319 293 220 164 8 350 279 276 119 168 166 188 225 283 251 240 266 316 295 303 72 345 314 306 307 55 65 41 72 46 32 351 354 41 14 347 2 336
251 252 251 243 245 239 241 235 248 260 256 256 280 267 286 297 292 282 324 333 339 305 256 273 237 139 203 197 197 211 187 273 272 250 232 301 50 334 299 289 307 354 48 52 26 12 353 351 346 354 336 332 334 318
254 252 253 240 236 228 232 230 242 253 246 248 253 267 286 291 277 258 251 226 259 262 276 269 233 176 189 219 178 182 199 198 197 286 292 267 148 183 267 1 357 5 12 12 1 7 2 358 344 337 334 324 313 308
246 254 241 230 230 228 227 201 233 239 229 222 239 275 266 232 240 125 194 193 230 287 303 254 292 92 172 259 50 168 295 214 145 212 229 247 219 205 186 218 317 347 16 355 356 353 342 315 318 322 321 328 327 324
243 246 227 215 212 229 191 201 192 232 209 182 235 224 232 210 135 153 189 209 199 203 227 265 298 73 259 176 184 224 195 268 209 195 210 218 255 272 247 252 108 60 28 17 343 326 337 323 318 321 322 319 309 304
232 217 194 195 209 197 187 171 177 178 170 206 230 236 189 119 219 286 245 208 204 231 206 232 291 325 68 339 348 355 342 347 240 161 229 229 101 45 50 61 50 37 15 353 345 336 326 320 316 311 307 308 307 304
180 172 188 174 183 182 176 158 173 208 154 0 303 267 245 208 207 234 232 240 234 224 149 207 184 246 78 331 302 129 265 215 276 62 256 229 50 34 36 28 26 8 352 336 325 314 308 303 302 300 296 291 289 295
168 155 164 166 156 154 158 164 186 327 306 321 14 301 298 176 223 193 185 219 215 137 126 149 150 207 150 264 271 340 218 232 27 262 232 69 44 24 7 350 339 331 322 315 309 302 304 300 291 291 293 287 281 275
148 160 147 145 161 149 147 166 159 217 260 187 176 210 231 197 214 234 234 228 81 62 93 144 105 34 36 193 250 199 315 359 277 249 98 52 20 353 343 332 322 322 322 307 303 310 306 295 289 286 287 276 272 259
114 99 138 134 131 133 135 142 173 219 272 296 269 259 211 240 184 173 60 148 47 62 65 110 158 250 181 152 247 13 185 258 224 39 31 25 354 340 328 326 332 336 335 322 319 315 307 303 298 283 285 308 58 329
124 119 127 128 131 129 132 161 176 256 268 280 258 250 254 209 275 170 95 39 120 120 213 220 335 8 222 68 39 257 247 96 44 360 353 4 356 345 340 326 332 338 336 326 339 333 332 320 308 294 332 33 41 35
349 120 131 128 132 142 190 195 210 228 284 277 254 219 309 284 64 359 104 132 182 187 277 306 186 176 285 133 227 275 20 34 347 325 327 345 327 336 332 348 351 7 357 10 14 25 13 343 18 357 12 28 38 63
100 118 121 129 149 148 199 227 259 217 227 249 287 308 162 217 352 26 54 51 7 11 342 301 301 197 216 226 61 359 1 346 324 334 326 322 306 311 308 315 319 252 271 297 285 30 349 328 31 178 249 314 0 261
105 124 143 87 5 283 215 201 288 292 260 97 242 261 306 62 35 266 347 126 107 229 5 304 244 236 106 66 26 355 347 331 339 323 314 285 280 283 285 266 257 258 221 271 292 111 202 29 26 306 353 37 16 261
101 114 158 335 331 282 276 268 187 270 285 324 244 248 96 111 207 214 111 269 17 251 277 253 357 18 6 30 356 314 302 325 311 307 309 315 317 238 248 295 329 341 349 353 332 303 338 213 222 340 242 257 213 223
202 142 207 286 266 275 290 272 240 306 331 267 60 344 295 165 237 189 232 170 222 219 287 12 6 10 337 296 281 296 296 291 279 275 281 294 344 346 326 326 309 334 29 312 303 317 254 314 318 307 271 246 202 152
49 150 340 320 285 10 295 8 330 347 338 338 307 11 300 259 218 26 344 289 275 261 304 320 294 309 305 298 303 316 280 274 273 264 279 286 325 313 319 305 320 300 286 288 276 296 320 354 17 324 311 334 280 264
85 7 350 314 310 336 280 322 282 7 327 321 261 8 18 15 27 336 0 336 301 274 268 273 288 299 289 295 312 289 287 267 249 241 237 249 240 251 297 290 292 283 296 15 341 313 320 316 343 334 308 300 298 297
126 185 239 255 205 266 283 224 209 275 226 357 48 7 236 81 33 105 246 245 253 272 288 341 11 320 276 257 264 263 245 198 242 231 258 282 270 265 249 269 291 306 336 3 325 332 340 327 322 308 309 304 302 306
205 182 167 214 193 210 194 172 172 146 221 160 183 231 195 163 164 2 346 339 3 49 238 218 229 240 239 196 214 242 263 266 339 336 4 283 329 336 323 333 341 329 325 334 332 321 309 311 311 310 318 314 317 311
245 197 202 161 161 212 189 175 187 221 197 178 195 140 158 187 125 135 197 199 203 204 223 225 252 26 344 193 218 194 327 16 351 339 335 281 283 309 316 304 309 327 342 357 344 328 320 317 313 309 299 294 281 269
318 312 196 243 111 137 147 135 168 168 81 72 116 136 89 77 63 49 17 55 83 103 115 73 89 55 57 45 333 190 269 305 275 351 348 351 333 359 16 359 19 10 343 333 325 329 330 327 321 315 312 310 312 320
185 341 51 71 69 63 70 69 66 72 80 84 73 64 66 83 112 102 26 19 29 17 13 18 19 23 45 11 7 10 8 350 6 13 354 342 340 345 3 352 346 353 342 341 338 328 324 318 315 313 311 310 312 310
46 57 56 53 51 32 49 60 67 75 81 85 84 92 95 89 69 39 46 64 38 27 29 18 18 19 14 11 18 8 348 359 10 348 345 338 342 351 346 343 347 346 329 321 326 331 336 332 315 308 309 306 302 295
38 55 63 55 41 55 63 66 88 86 104 114 115 114 102 92 81 67 56 16 3 35 26 3 18 20 15 4 3 353 354 11 3 356 337 340 340 333 344 347 340 329 320 322 333 328 330 328 323 315 320 352 359 350
60 79 101 83 64 75 36 53 64 114 130 130 112 100 106 109 92 61 45 22 15 18 34 5 12 14 7 4 349 348 351 348 341 345 6 342 335 342 346 338 329 315 331 339 325 327 330 330 332 322 334 6 9 4
26 8 12 36 320 0 87 23 5 10 86 96 72 122 131 128 97 72 35 15 30 355 34 19 12 360 8 353 350 350 349 333 342 0 352 346 340 342 337 322 311 346 336 324 330 330 337 340 332 332 343 347 346 349
63 359 331 135 173 353 327 111 137 289 11 358 15 120 152 104 78 53 52 21 12 353 23 24 6 354 5 355 349 341 343 337 354 114 117 107 159 281 305 323 334 336 320 328 326 327 343 336 327 334 2 353 355 346